Weather History for Summerville, SC

Change the Weather History Date:

Tuesday, December 6, 2011

  Actual Average (KCHS) Record (KCHS)
Temperature  
Mean Temperature 64 °F 53 °F  
Max Temperature 77 °F 64 °F 82 °F (2013)
Min Temperature 51 °F 42 °F 27 °F (2000)
Degree Days  
Heating Degree Days 1 12  
Month to date heating degree days 70  
Since 1 July heating degree days 362  
Cooling Degree Days 0 0  
Month to date cooling degree days 0  
Year to date cooling degree days 2297  
Growing Degree Days 14 (Base 50)    
Moisture  
Dew Point 59 °F    
Average Humidity 87    
Maximum Humidity 100    
Minimum Humidity 61    
Precipitation  
Precipitation 0.00 in 0.10 in 1.86 in (1972)
Month to date precipitation 0.56  
Year to date precipitation 48.48  
Sea Level Pressure  
Sea Level Pressure 30.12 in    
Wind  
Wind Speed 2 mph (South)    
Max Wind Speed 10 mph    
Max Gust Speed -    
Visibility 7 miles    
Events Fog    
T = Trace of Precipitation, MM = Missing Value Source: NWS Daily Summary

Daily Weather History Graph

Daily Weather History Graph

Search for Another Location

Airport:

Trip Planner

Search our weather history database for the weather conditions in past years. The results will help you decide how hot, cold, wet, or windy it might be!

Date:

Astronomy

Dec. 06, 2011 Rise Set
Actual Time 7:10 AM EST 5:13 PM EST
Civil Twilight 6:42 AM EST 5:41 PM EST
Nautical Twilight 6:12 AM EST 6:11 PM EST
Astronomical Twilight 5:42 AM EST 6:41 PM EST
Moon 2:34 PM EST (12/6) 3:33 AM EST (12/6)
Length of Visible Light 10h 58m
Length of Day
10h 03m
Waxing Gibbous, 86% of the Moon is Illuminated
Dec 6
Waxing Gibbous
Dec 10
Full
Dec 17
Last Quarter
Dec 24
New
Jan 1
First Quarter

Hourly Weather History & Observations

Time (EST) Temp. Dew Point Humidity Pressure Visibility Wind Dir Wind Speed Gust Speed Precip Events Conditions
12:15 AM 53.6 °F 53.6 °F 100% 30.17 in 0.2 mi Calm Calm - N/A Fog Fog
12:35 AM 53.6 °F 53.6 °F 100% 30.17 in 0.5 mi Calm Calm - N/A Fog Fog
12:55 AM 53.6 °F 53.6 °F 100% 30.16 in 0.2 mi Calm Calm - N/A Fog Fog
1:15 AM 53.6 °F 53.6 °F 100% 30.16 in 0.5 mi Calm Calm - N/A Fog Fog
1:35 AM 53.6 °F 53.6 °F 100% 30.15 in 1.2 mi Calm Calm - N/A   Overcast
1:55 AM 53.6 °F 53.6 °F 100% 30.15 in 7.0 mi Calm Calm - N/A   Mostly Cloudy
2:15 AM 53.6 °F 53.6 °F 100% 30.15 in 7.0 mi Calm Calm - N/A   Mostly Cloudy
2:35 AM 53.6 °F 53.6 °F 100% 30.15 in 3.0 mi Calm Calm - N/A   Overcast
2:55 AM 53.6 °F 53.6 °F 100% 30.15 in 2.0 mi Calm Calm - N/A   Overcast
3:15 AM 55.4 °F 55.4 °F 100% 30.15 in 1.8 mi Calm Calm - N/A   Mostly Cloudy
3:35 AM 55.4 °F 55.4 °F 100% 30.15 in 3.0 mi Calm Calm - N/A   Mist
3:55 AM 53.6 °F 53.6 °F 100% 30.14 in 7.0 mi Calm Calm - N/A   Clear
4:15 AM 53.6 °F 53.6 °F 100% 30.14 in 1.5 mi Calm Calm - N/A   Scattered Clouds
4:35 AM 51.8 °F 51.8 °F 100% 30.14 in 0.5 mi Calm Calm - N/A Fog Fog
4:55 AM 51.8 °F 51.8 °F 100% 30.14 in 2.5 mi Calm Calm - N/A   Mist
5:15 AM 51.8 °F 51.8 °F 100% 30.14 in 4.0 mi Calm Calm - N/A   Clear
5:35 AM 51.8 °F 51.8 °F 100% 30.14 in 5.0 mi Calm Calm - N/A   Scattered Clouds
5:55 AM 51.8 °F 51.8 °F 100% 30.15 in 10.0 mi Calm Calm - N/A   Mostly Cloudy
6:15 AM 51.8 °F 51.8 °F 100% 30.15 in 10.0 mi Calm Calm - N/A   Mostly Cloudy
6:35 AM 51.8 °F 51.8 °F 100% 30.15 in 10.0 mi Calm Calm - N/A   Overcast
6:55 AM 51.8 °F 51.8 °F 100% 30.15 in 7.0 mi Calm Calm - N/A   Overcast
7:15 AM 51.8 °F 51.8 °F 100% 30.15 in 10.0 mi Calm Calm - N/A   Overcast
7:55 AM 51.8 °F 51.8 °F 100% 30.15 in 0.2 mi Calm Calm - N/A Fog Fog
8:15 AM 51.8 °F 51.8 °F 100% 30.15 in 0.2 mi Calm Calm - N/A Fog Fog
8:35 AM 53.6 °F 53.6 °F 100% 30.15 in 0.5 mi Calm Calm - N/A Fog Fog
8:55 AM 57.2 °F 57.2 °F 100% 30.16 in 1.5 mi Calm Calm - N/A   Mostly Cloudy
9:15 AM 62.6 °F 62.6 °F 100% 30.16 in 10.0 mi Calm Calm - N/A   Clear
9:35 AM 66.2 °F 66.2 °F 100% 30.16 in 10.0 mi Calm Calm - N/A   Clear
9:55 AM 68.0 °F 66.2 °F 94% 30.16 in 10.0 mi SE 4.6 mph - N/A   Clear
10:15 AM 69.8 °F 66.2 °F 88% 30.15 in 10.0 mi South 3.5 mph - N/A   Scattered Clouds
10:35 AM 71.6 °F 66.2 °F 83% 30.15 in 10.0 mi SSE 4.6 mph - N/A   Scattered Clouds
10:55 AM 71.6 °F 64.4 °F 78% 30.15 in 10.0 mi South 6.9 mph - N/A   Scattered Clouds
11:15 AM 71.6 °F 64.4 °F 78% 30.14 in 10.0 mi SSW 6.9 mph - N/A   Mostly Cloudy
11:35 AM 73.4 °F 64.4 °F 73% 30.14 in 10.0 mi South 3.5 mph - N/A   Mostly Cloudy
11:55 AM 73.4 °F 64.4 °F 73% 30.13 in 10.0 mi South 6.9 mph - N/A   Mostly Cloudy
12:15 PM 75.2 °F 62.6 °F 65% 30.11 in 10.0 mi South 6.9 mph - N/A   Scattered Clouds
12:35 PM 73.4 °F 62.6 °F 69% 30.10 in 10.0 mi SSW 5.8 mph - N/A   Scattered Clouds
12:55 PM 73.4 °F 62.6 °F 69% 30.10 in 10.0 mi SSW 4.6 mph - N/A   Overcast
1:15 PM 73.4 °F 62.6 °F 69% 30.09 in 10.0 mi South 5.8 mph - N/A   Mostly Cloudy
1:35 PM 73.4 °F 62.6 °F 69% 30.08 in 10.0 mi SSE 8.1 mph - N/A   Overcast
1:55 PM 73.4 °F 62.6 °F 69% 30.08 in 10.0 mi SSE 4.6 mph - N/A   Overcast
2:35 PM 77.0 °F 62.6 °F 61% 30.07 in 10.0 mi SSE 6.9 mph - N/A   Scattered Clouds
2:55 PM 77.0 °F 62.6 °F 61% 30.07 in 10.0 mi South 5.8 mph - N/A   Scattered Clouds
3:15 PM 77.0 °F 62.6 °F 61% 30.06 in 10.0 mi SSW 10.4 mph - N/A   Scattered Clouds
3:35 PM 75.2 °F 60.8 °F 61% 30.06 in 10.0 mi South 6.9 mph - N/A   Scattered Clouds
3:55 PM 75.2 °F 60.8 °F 61% 30.06 in 10.0 mi SSE 5.8 mph - N/A   Clear
4:15 PM 73.4 °F 62.6 °F 69% 30.07 in 10.0 mi South 8.1 mph - N/A   Scattered Clouds
4:35 PM 73.4 °F 62.6 °F 69% 30.07 in 10.0 mi South 4.6 mph - N/A   Scattered Clouds
4:55 PM 71.6 °F 62.6 °F 73% 30.07 in 10.0 mi SSE 4.6 mph - N/A   Clear
5:15 PM 69.8 °F 62.6 °F 78% 30.07 in 10.0 mi South 4.6 mph - N/A   Scattered Clouds
5:35 PM 69.8 °F 62.6 °F 78% 30.07 in 10.0 mi South 4.6 mph - N/A   Clear
5:55 PM 68.0 °F 62.6 °F 83% 30.06 in 10.0 mi SSE 3.5 mph - N/A   Scattered Clouds
6:15 PM 68.0 °F 62.6 °F 83% 30.06 in 10.0 mi SSE 3.5 mph - N/A   Scattered Clouds
6:35 PM 68.0 °F 62.6 °F 83% 30.06 in 10.0 mi SSE 5.8 mph - N/A   Clear
6:55 PM 68.0 °F 62.6 °F 83% 30.06 in 10.0 mi SE 4.6 mph - N/A   Mostly Cloudy
7:15 PM 66.2 °F 62.6 °F 88% 30.07 in 10.0 mi SSE 4.6 mph - N/A   Mostly Cloudy
7:35 PM 66.2 °F 64.4 °F 94% 30.07 in 10.0 mi SSE 3.5 mph - N/A   Mostly Cloudy
7:55 PM 64.4 °F 64.4 °F 100% 30.07 in 10.0 mi South 3.5 mph - N/A   Mostly Cloudy
8:15 PM 64.4 °F 64.4 °F 100% 30.07 in 10.0 mi South 4.6 mph - N/A   Scattered Clouds
8:35 PM 64.4 °F 64.4 °F 100% 30.07 in 10.0 mi SSE 3.5 mph - N/A   Clear
8:55 PM 64.4 °F 64.4 °F 100% 30.06 in 10.0 mi SSE 3.5 mph - N/A   Clear
9:15 PM 64.4 °F 64.4 °F 100% 30.06 in 10.0 mi SSE 3.5 mph - N/A   Clear
9:35 PM 62.6 °F 62.6 °F 100% 30.05 in 10.0 mi SSE 3.5 mph - N/A   Clear
9:55 PM 62.6 °F 62.6 °F 100% 30.05 in 10.0 mi SSE 3.5 mph - N/A   Clear
10:15 PM 62.6 °F 62.6 °F 100% 30.05 in 10.0 mi Calm Calm - N/A   Clear
10:35 PM 62.6 °F 62.6 °F 100% 30.04 in 10.0 mi SSE 3.5 mph - N/A   Clear
10:55 PM 62.6 °F 62.6 °F 100% 30.04 in 10.0 mi Calm Calm - N/A   Clear
11:15 PM 62.6 °F 62.6 °F 100% 30.04 in 10.0 mi South 4.6 mph - N/A   Clear
11:35 PM 62.6 °F 62.6 °F 100% 30.04 in 10.0 mi South 3.5 mph - N/A   Clear
11:55 PM 62.6 °F 62.6 °F 100% 30.03 in 10.0 mi SSE 3.5 mph - N/A   Clear